CW1490 Weather Reports


Display with metric or nautical units.
time (UTC)temp
F
wind
direction
speed
MPH
gust
MPH
rain 1hr
in
rain 24hr
in
rain mn
in
humidity
%
barometer
mb
20150328220326 33 21 7.0 12.0 0.00 0.01 0.01 63 1011.7
20150328214824 34 34 6.0 13.0 0.00 0.01 0.01 63 1011.2
20150328213321 34 350 5.0 16.0 0.00 0.01 0.01 65 1011.0
20150328211818 34 355 7.0 19.0 0.00 0.01 0.01 64 1010.7
20150328204815 34 50 12.0 22.0 0.00 0.01 0.01 64 1010.2
20150328203314 34 21 5.0 17.0 0.00 0.01 0.01 65 1009.9
20150328201813 34 54 9.0 15.0 0.00 0.01 0.01 64 1009.8
20150328200312 34 345 8.0 19.0 0.00 0.01 0.01 66 1009.7
20150328194810 34 36 9.0 18.0 0.00 0.01 0.01 69 1009.4
20150328193310 35 59 14.0 22.0 0.00 0.01 0.01 67 1009.4
20150328191808 34 57 15.0 22.0 0.00 0.01 0.01 67 1009.2
20150328190306 34 41 15.0 21.0 0.00 0.01 0.01 69 1009.3
20150328184805 34 29 9.0 18.0 0.00 0.01 0.01 70 1009.2
20150328183303 33 359 6.0 15.0 0.00 0.01 0.01 74 1009.5
20150328181801 33 41 12.0 18.0 0.00 0.01 0.01 76 1009.6
20150328180301 32 69 10.0 17.0 0.00 0.01 0.01 78 1009.7
20150328174800 32 6 9.0 14.0 0.00 0.01 0.01 79 1009.8
20150328173259 32 350 13.0 19.0 0.00 0.01 0.01 79 1009.9
20150328171758 31 30 12.0 17.0 0.00 0.01 0.01 81 1009.8
20150328170256 31 24 11.0 22.0 0.00 0.01 0.01 79 1009.9
20150328164756 31 34 9.0 14.0 0.01 0.01 0.01 82 1010.0
20150328163255 31 49 11.0 18.0 0.01 0.01 0.01 80 1009.9
20150328161754 31 72 10.0 17.0 0.01 0.01 0.01 81 1010.0
20150328160253 31 65 12.0 16.0 0.01 0.01 0.01 83 1010.0
20150328154850 31 46 11.0 17.0 0.00 0.00 0.00 83 1010.1
20150328153249 30 40 12.0 23.0 0.00 0.00 0.00 81 1010.1
20150328151747 31 22 11.0 21.0 0.00 0.00 0.00 82 1010.2
20150328144742 31 45 7.0 15.0 0.00 0.00 0.00 85 1010.2
20150328143239 31 8 9.0 17.0 0.00 0.00 0.00 85 1010.2
20150328141738 30 50 7.0 16.0 0.00 0.00 0.00 85 1010.3
20150328140236 30 32 6.0 12.0 0.00 0.00 0.00 87 1010.1
20150328134732 30 68 8.0 13.0 0.00 0.00 0.00 87 1009.9
20150328133230 30 47 7.0 13.0 0.00 0.00 0.00 86 1009.8
20150328131727 30 355 7.0 16.0 0.00 0.00 0.00 85 1009.6
20150328124719 30 49 8.0 15.0 0.00 0.00 0.00 81 1009.6
20150328123218 31 45 8.0 15.0 0.00 0.00 0.00 79 1009.5
20150328121713 31 36 8.0 15.0 0.00 0.00 0.00 79 1009.3
20150328120211 31 41 7.0 13.0 0.00 0.00 0.00 79 1009.2
20150328114709 31 32 5.0 11.0 0.00 0.00 0.00 79 1009.0
20150328113208 32 51 9.0 14.0 0.00 0.00 0.00 78 1008.7
20150328111706 32 42 6.0 15.0 0.00 0.00 0.00 78 1008.5
20150328110205 32 350 9.0 20.0 0.00 0.04 0.00 77 1008.5
20150328104702 32 25 7.0 12.0 0.00 0.04 0.00 78 1008.7
20150328103201 33 13 9.0 13.0 0.00 0.04 0.00 78 1008.4
20150328101700 33 25 6.0 11.0 0.00 0.04 0.00 80 1008.2
20150328100159 33 55 6.0 12.0 0.00 0.05 0.00 79 1008.1
20150328094657 33 15 9.0 15.0 0.00 0.05 0.00 81 1008.3
20150328093156 33 34 4.0 9.0 0.00 0.05 0.00 82 1008.3
20150328091654 33 3 7.0 13.0 0.00 0.05 0.00 82 1008.0
20150328090152 33 34 7.0 13.0 0.00 0.05 0.00 86 1007.9
20150328084649 33 44 4.0 7.0 0.00 0.05 0.00 88 1007.9
20150328083247 33 25 3.0 7.0 0.00 0.05 0.00 89 1007.9
20150328081644 32 30 2.0 6.0 0.00 0.05 0.00 91 1007.7
20150328080143 32 22 3.0 6.0 0.00 0.05 0.00 92 1007.6
20150328074642 32 26 3.0 6.0 0.00 0.05 0.00 93 1007.5
20150328073140 32 50 0.0 3.0 0.00 0.05 0.00 95 1007.8
20150328071640 31 49 0.0 2.0 0.00 0.05 0.00 95 1008.0
20150328070137 31 50 0.0 2.0 0.00 0.05 0.00 95 1008.2
20150328064635 31 355 1.0 4.0 0.00 0.05 0.00 95 1008.4
20150328063135 30 38 0.0 0.0 0.00 0.05 0.00 95 1008.5
20150328061635 30 38 0.0 0.0 0.00 0.05 0.00 95 1008.7
20150328060134 30 38 0.0 0.0 0.00 0.05 0.00 94 1008.8
20150328054633 30 38 0.0 0.0 0.00 0.05 0.00 94 1008.6
20150328053131 31 38 0.0 2.0 0.00 0.05 0.00 94 1008.5
20150328051631 31 16 2.0 5.0 0.00 0.05 0.00 94 1008.5
20150328050129 31 41 0.0 2.0 0.00 0.07 0.00 93 1008.7
20150328044628 31 41 1.0 3.0 0.00 0.07 0.00 93 1008.8
20150328043125 31 44 0.0 6.0 0.00 0.07 0.00 93 1008.6
20150328041623 31 21 1.0 3.0 0.00 0.07 0.00 92 1008.6
20150328040119 32 9 2.0 5.0 0.00 0.10 0.07 93 1008.6
20150328034617 32 28 0.0 3.0 0.00 0.10 0.07 93 1008.6
20150328033114 32 29 1.0 3.0 0.00 0.10 0.07 93 1008.4
20150328031611 32 22 0.0 0.0 0.00 0.10 0.07 92 1008.4
20150328030109 34 22 0.0 0.0 0.00 0.19 0.07 89 1008.3
20150328024609 35 22 0.0 0.0 0.00 0.19 0.07 88 1008.3
20150328023107 36 22 2.0 3.0 0.00 0.19 0.07 87 1008.1
20150328021605 36 24 0.0 0.0 0.00 0.19 0.07 87 1008.2
20150328020104 36 24 0.0 4.0 0.00 0.25 0.07 86 1007.9
20150328014605 36 26 0.0 2.0 0.00 0.25 0.07 86 1007.8
20150328013102 37 26 2.0 4.0 0.00 0.25 0.07 83 1007.6
20150328011702 37 28 2.0 4.0 0.00 0.25 0.07 83 1007.7
20150328010100 38 32 0.0 4.0 0.00 0.39 0.07 81 1007.8
20150328004600 38 39 3.0 6.0 0.00 0.39 0.07 83 1007.8
20150328003100 38 59 0.0 4.0 0.00 0.39 0.07 82 1007.7
20150328001558 38 40 1.0 5.0 0.00 0.39 0.07 83 1007.6
20150328000057 38 35 3.0 7.0 0.00 0.45 0.07 82 1006.9
20150327234557 40 46 2.0 5.0 0.00 0.45 0.07 76 1007.0
20150327233056 40 338 1.0 4.0 0.00 0.45 0.07 77 1006.8
20150327231555 40 32 1.0 3.0 0.00 0.45 0.07 75 1006.6
20150327230055 41 32 1.0 3.0 0.00 0.53 0.07 73 1006.7
20150327224554 42 345 0.0 3.0 0.00 0.53 0.07 71 1006.4
20150327221553 42 338 3.0 6.0 0.00 0.53 0.07 68 1005.8